sat.trackr.live / text

‹ back to catalog

STARLINK-1297

NORAD 45395 · 2020-019AM

PAYLOAD ACTIVE UNKNOWN

§ Identity

Operator
Country
US
Launch date
2020-03-18
Launch site
AFETR
Launch vehicle
Mass (kg)
RCS (m²)

Purposes: comms

External: N2YO · Heavens-Above · Gunter

§ Orbital elements

Epoch: 2026-09-20T06:00:02.000160Z

Period
90.36 min
Inclination
53.0317°
Eccentricity
0.0006672
Mean motion
15.93546814 rev/d
Perigee alt
287.9 km
Apogee alt
296.8 km
Semi-major
6,670.5 km
B*
4.7660e-4
RAAN
245.5610°
Arg perigee
56.4278°
Mean anomaly
87.2229°
Rev number
602

§ Raw data

STARLINK-12971 45395U 20019AM  26263.25002315  .00172689  22493-4  47660-3 0  99982 45395  53.0317 245.5610 0006672  56.4278  87.2229 15.93546814  6027

JSON: /api/v1/satellites/45395 · /tle

For live sub-satellite position, see the globe view (requires WebGL).

§ Visibility from observer

Set your observer location to see the next 7 days of passes ≥ 10°. The values pass through the URL so the page stays shareable.

No JS? Fill the form by hand. The geolocation button needs JavaScript.